Bolton Field, OH

7:50 PM EDT on September 22, 2017 (GMT -0400)
Bolton

Weather History for KTZR - November, 2012

Change the Weather History Date:

Tuesday, November 6, 2012

  Actual Average Record
Temperature  
Mean Temperature 36 °F -  
Max Temperature 46 °F 53 °F 71 °F (2008)
Min Temperature 26 °F 38 °F 23 °F (2010)
Degree Days  
Heating Degree Days 29    
Moisture  
Dew Point 26 °F    
Average Humidity 77    
Maximum Humidity 93    
Minimum Humidity 46    
Precipitation  
Precipitation 0.00 in - - ()
Sea Level Pressure  
Sea Level Pressure 30.03 in    
Wind  
Wind Speed 3 mph (NE)    
Max Wind Speed 8 mph    
Max Gust Speed -    
Visibility 10 miles    
Events      
Averages and records for this station are not official NWS values.
T = Trace of Precipitation, MM = Missing Value Source: NWS Daily Summary

Daily Weather History Graph

Daily Weather History Graph

Search for Another Location

Airport or City:

Trip Planner

Search our weather history database for the weather conditions in past years. The results will help you decide how hot, cold, wet, or windy it might be!

Date:

Astronomy

Nov. 06, 2012 Rise Set
Actual Time 7:07 AM EST 5:24 PM EST
Civil Twilight 6:39 AM EST 5:52 PM EST
Nautical Twilight 6:07 AM EST 6:24 PM EST
Astronomical Twilight 5:35 AM EST 6:56 PM EST
Moon No Moon Rise 12:59 PM EST (11/6)
Length of Visible Light 11h 13m
Length of Day
10h 16m
Waning Gibbous, 53% of the Moon is Illuminated
Nov 6
Waning Gibbous
Nov 6
Last Quarter
Nov 13
New
Nov 20
First Quarter
Nov 28
Full

Hourly Weather History & Observations

Time (EST) Temp. Windchill Dew Point Humidity Pressure Visibility Wind Dir Wind Speed Gust Speed Precip Events Conditions
12:15 AM 32.0 °F 27.5 °F 26.4 °F 80% 30.11 in 10.0 mi NE 4.6 mph - N/A   Clear
12:35 AM 31.8 °F 26.2 °F 26.4 °F 80% 30.11 in 10.0 mi NE 5.8 mph - N/A   Clear
12:55 AM 31.6 °F 28.3 °F 26.1 °F 80% 30.11 in 10.0 mi NE 3.5 mph - N/A   Clear
1:15 AM 31.3 °F - 25.7 °F 80% 30.12 in 10.0 mi Calm Calm - N/A   Clear
1:35 AM 31.5 °F - 26.1 °F 80% 30.12 in 10.0 mi Calm Calm - N/A   Clear
1:55 AM 30.9 °F 27.5 °F 25.5 °F 80% 30.12 in 10.0 mi ENE 3.5 mph - N/A   Clear
2:15 AM 31.1 °F 26.4 °F 25.5 °F 80% 30.11 in 10.0 mi ENE 4.6 mph - N/A   Clear
2:35 AM 30.7 °F 27.3 °F 25.3 °F 80% 30.11 in 10.0 mi ENE 3.5 mph - N/A   Clear
2:55 AM 30.2 °F - 25.2 °F 82% 30.10 in 10.0 mi Calm Calm - N/A   Clear
3:15 AM 29.8 °F 26.3 °F 25.2 °F 83% 30.09 in 10.0 mi ENE 3.5 mph - N/A   Clear
3:35 AM 29.7 °F - 25.0 °F 83% 30.09 in 10.0 mi Calm Calm - N/A   Clear
3:55 AM 27.3 °F - 23.4 °F 85% 30.09 in 10.0 mi Calm Calm - N/A   Clear
4:15 AM 29.1 °F - 25.2 °F 85% 30.09 in 10.0 mi Calm Calm - N/A   Clear
4:35 AM 29.3 °F - 25.2 °F 85% 30.08 in 10.0 mi Calm Calm - N/A   Clear
4:55 AM 27.0 °F 21.6 °F 23.0 °F 85% 30.09 in 10.0 mi NNE 4.6 mph - N/A   Clear
5:15 AM 27.9 °F 24.0 °F 24.1 °F 86% 30.09 in 10.0 mi NE 3.5 mph - N/A   Clear
5:35 AM 28.8 °F - 24.8 °F 85% 30.08 in 10.0 mi Calm Calm - N/A   Clear
5:55 AM 27.7 °F 23.8 °F 23.7 °F 85% 30.08 in 10.0 mi NNE 3.5 mph - N/A   Clear
6:15 AM 28.0 °F - 24.3 °F 86% 30.09 in 10.0 mi Calm Calm - N/A   Clear
6:35 AM 27.1 °F - 23.9 °F 88% 30.09 in 10.0 mi Calm Calm - N/A   Clear
6:55 AM 28.8 °F 25.0 °F 24.4 °F 84% 30.08 in 10.0 mi ENE 3.5 mph - N/A   Clear
7:15 AM 29.1 °F 25.4 °F 24.4 °F 83% 30.07 in 10.0 mi NE 3.5 mph - N/A   Clear
7:20 AM 28.4 °F 24.6 °F 24.8 °F 86% 30.07 in 10.0 mi NE 3.5 mph - N/A   Clear
7:50 AM 26.6 °F 21.2 °F 24.8 °F 93% 30.07 in 10.0 mi NNE 4.6 mph - N/A   Clear
8:50 AM 33.8 °F 30.8 °F 26.6 °F 75% 30.08 in 10.0 mi NNE 3.5 mph - N/A   Clear
9:50 AM 37.4 °F 31.4 °F 28.4 °F 70% 30.07 in 10.0 mi East 8.1 mph - N/A   Clear
10:50 AM 39.2 °F 35.0 °F 28.4 °F 65% 30.06 in 10.0 mi East 5.8 mph - N/A   Clear
11:47 AM 42.8 °F - 28.4 °F 57% 30.05 in 10.0 mi Calm Calm - N/A   Clear
12:55 PM 44.6 °F - 28.4 °F 53% 30.01 in 10.0 mi Calm Calm - N/A   Clear
1:47 PM 46.4 °F - 28.4 °F 50% 29.99 in 10.0 mi Calm Calm - N/A   Clear
2:49 PM 46.4 °F 44.3 °F 28.4 °F 50% 29.96 in 10.0 mi East 4.6 mph - N/A   Clear
3:50 PM 46.4 °F - 26.6 °F 46% 29.96 in 10.0 mi Calm Calm - N/A   Clear
4:50 PM 44.6 °F - 26.6 °F 49% 29.96 in 10.0 mi Calm Calm - N/A   Mostly Cloudy
5:50 PM 42.8 °F - 26.6 °F 53% 29.95 in 10.0 mi Calm Calm - N/A   Mostly Cloudy
6:50 PM 37.4 °F 33.8 °F 26.6 °F 65% 29.95 in 10.0 mi NW 4.6 mph - N/A   Mostly Cloudy
8:15 PM 36.9 °F 33.1 °F 27.5 °F 69% 29.96 in 10.0 mi NW 4.6 mph - N/A   Clear
8:35 PM 32.2 °F - 26.6 °F 80% 29.96 in 10.0 mi Calm Calm - N/A   Clear
8:55 PM 32.9 °F - 27.5 °F 81% 29.95 in 10.0 mi Calm Calm - N/A   Clear
9:15 PM 33.4 °F 30.4 °F 28.0 °F 81% 29.95 in 7.0 mi North 3.5 mph - N/A   Scattered Clouds
9:35 PM 34.3 °F - 28.2 °F 78% 29.95 in 10.0 mi Calm Calm - N/A   Overcast
9:55 PM 32.0 °F 28.7 °F 27.5 °F 83% 29.94 in 10.0 mi NNW 3.5 mph - N/A   Overcast
10:15 PM 31.5 °F 28.1 °F 27.7 °F 86% 29.94 in 10.0 mi NW 3.5 mph - N/A   Overcast
10:35 PM 32.9 °F 29.8 °F 27.7 °F 81% 29.94 in 10.0 mi North 3.5 mph - N/A   Overcast
10:55 PM 34.9 °F - 28.9 °F 79% 29.92 in 10.0 mi Calm Calm - N/A   Overcast
11:15 PM 34.9 °F 30.8 °F 29.3 °F 80% 29.92 in 10.0 mi NNE 4.6 mph - N/A   Overcast
11:35 PM 34.5 °F 30.4 °F 29.8 °F 83% 29.92 in 10.0 mi North 4.6 mph - N/A   Overcast
11:55 PM 34.7 °F - 30.0 °F 83% 29.92 in 10.0 mi Calm Calm - N/A   Overcast